COSMOS 1375 DEB, 17106

Orbit data source: Space-Track

COSMOS 1375 DEB, 17106 is space debris in LEO originally from a launch on Sun, 06 Jun 1982 UTC launched from the Plesetsk Missile And Space Complex (PKMTR). Debris objects in space refer to the collection of defunct objects orbiting the Earth. Examples of debris include non-operational satellites, rocket bodies, and fragments generated from explosions, collisions, or faulty payload assembly.

Loading next visibility...
Identifier
17106, 1982-055AH
Orbit
LEO
Country
Flag of CISCIS
Related business
Manufacturer
Unknown
Mission
Spacecraft
Bus & Motor
Unknown
Mass
Unknown
Launch date (UTC)
1982-06-06 (44 years ago)
Launch vehicle
Unknown
Launch site
Plesetsk Missile And Space Complex (PKMTR)
Object type
Payload
Rocket body
Debris
Shape & HBR
Unknown shape, 0.1 m
Radar Cross Section
Medium (>0.1 m² and <1 m²)

Expand to show TLE details & history
Last TLE update: 2 days ago

TLE from 2 days ago
0 COSMOS 1375 DEB
1 17106U 82055AH  26171.44937428  .00000185  00000-0  23121-3 0  9999
2 17106  65.8297 325.8921 0018742 180.3899 212.8530 13.86322122220751
Epoch: 2026-06-20T10:47Z
TLE epoch observation values (Epoch: 2026-06-20T10:47:05.937Z)
Latitude
29.97242°
Longitude
-89.62615°
Altitude
955.922 km
Speed
7.371 km/s
True Right ascension
22h 43m 14s
True Declination
29° 49' 40"
Sunlit
Object was in daylight at epoch
Visualization orbit readout
Latitude
Unknown
Longitude
Unknown
Altitude
Unknown
Speed
Unknown
Apparent Right ascension
Unknown
Apparent Declination
Unknown
Sunlit
N/A
Visualization observer readout
Local Sidereal Time
08:25:58
Azimuth
Unknown
Elevation
Unknown
Doppler factor
Unknown
Orbital elements
Apogee altitude
953.773 km
Perigee altitude
926.342 km
Semi-major axis
7,318.195 km
Eccentricity
0.00187
Inclination
65.8297°
RAAN
325.8921°
Arg. of periapsis
180.3899°
True anomaly
212.73672°
Mean anomaly
212.853°
Eccentric anomaly
212.79484°
Mean motion
3.46687 °/min
Orbital period
103.84 mins
BSTAR
0.00023121
Loading maneuver chart data...
Computing Atmospheric mass density...
Loading historical data...
Loading historical data...
Loading historical data...
Loading historical data...
Loading historical data...
Loading historical data...
Loading historical data...

Documentation

Showing up to 5 results
|